This is the latest recevied weather packets stored in our database for station/object K1RFS. If no packets are shown the sender has not sent any weather packets the latest 10 day(s).
| Time | Temp. | Humidity | Pressure | Rain* | Wind** | Luminosity | Snow |
|---|---|---|---|---|---|---|---|
| 1788056469 | 17.78° C | 77% | 1000.7 hPa | 0 mm | - | 0 W/m² | - |
| 1788056163 | 17.78° C | 78% | 1000.9 hPa | 0 mm | - | 0 W/m² | - |
| 1788055858 | 17.78° C | 78% | 1001.5 hPa | 0 mm | - | 0 W/m² | - |
| 1788055556 | 18.33° C | 78% | 1001.3 hPa | 0 mm | - | 1 W/m² | - |
| 1788055253 | 17.78° C | 77% | 1000.8 hPa | 0 mm | - | 2 W/m² | - |
| 1788054952 | 18.33° C | 77% | 1000.8 hPa | 0 mm | - | 3 W/m² | - |
| 1788054648 | 18.33° C | 76% | 1001.3 hPa | 0 mm | - | 4 W/m² | - |
| 1788054344 | 18.33° C | 78% | 1001.7 hPa | 0 mm | - | 5 W/m² | - |
| 1788054039 | 18.33° C | 77% | 1002.5 hPa | 0 mm | - | 8 W/m² | - |
| 1788053735 | 18.33° C | 75% | 1002.6 hPa | 0 mm | - | 7 W/m² | - |
| 1788053430 | 18.33° C | 76% | 1002.8 hPa | 0 mm | - | 8 W/m² | - |
| 1788053130 | 18.89° C | 77% | 1002.8 hPa | 0 mm | - | 8 W/m² | - |
| 1788052826 | 18.89° C | 77% | 1003.6 hPa | 1.27 mm | - | 9 W/m² | - |
| 1788052526 | 19.44° C | 76% | 1003.1 hPa | 1.27 mm | - | 17 W/m² | - |
| 1788052221 | 19.44° C | 76% | 1003.2 hPa | 4.83 mm | - | 9 W/m² | - |
| 1788051916 | 20° C | 76% | 1003.1 hPa | 4.83 mm | - | 7 W/m² | - |
| 1788051612 | 21.11° C | 67% | 1003 hPa | 0 mm | - | 2 W/m² | - |
| 1788051309 | 21.11° C | 61% | 1002.4 hPa | 0 mm | - | 2 W/m² | - |
| 1788051009 | 21.67° C | 60% | 1002.2 hPa | 0 mm | - | 5 W/m² | - |
| 1788050704 | 21.67° C | 59% | 1001.8 hPa | 0 mm | - | 13 W/m² | - |
| 1788050403 | 21.67° C | 59% | 1002 hPa | 0 mm | - | 13 W/m² | - |
| 1788050098 | 21.67° C | 60% | 1002.1 hPa | 0 mm | - | 15 W/m² | - |
| 1788049796 | 21.67° C | 60% | 1002.2 hPa | 0 mm | - | 29 W/m² | - |
| 1788049491 | 21.67° C | 60% | 1002.4 hPa | 0 mm | - | 41 W/m² | - |
| 1788049187 | 22.22° C | 59% | 1002.5 hPa | 0 mm | - | 61 W/m² | - |
* Rain latest hour (hover to see other rain measurements)
** Current wind speed in m/s (hover to see current wind gust speed)